GUOWANG

operational
NORAD ID: 66917 Country: PRC
LEOCIRCULAR

Über GUOWANG

Beschreibung wird geladen...

Live-Position

3D-Globus wird geladen...

Nächste Überflüge

Höhenverlauf

Altitude vs Time

uPlot chart will show altitude changes over time

Zweizeiliger Elementsatz

1 66917U 25285C 25341.36916959 -.00000167 00000-0 -91018-5 0 9994
2 66917 50.0027 139.1984 0007427 267.8822 92.1233 14.06037228 154
Epoch: 7. Dez. 2025 • Age: 2 hours

Aktueller Status

Höhe 879.6 km
Geschwindigkeit 7.41 km/s
Subsatellitenpunkt 35.70°N, 62.75°W
Typ other

Große Konstellationen

Loading constellations...